owner,sensor,date,latitude,longitude,sea_surface_height_above_sea_level,qcFlag 
TCOON,ioos:station:TCOON:524:1,2014-12-01T02:12:00Z,29.8672,-93.9310,1.631,1111122 
TCOON,ioos:station:TCOON:524:1,2014-12-01T03:12:00Z,29.8672,-93.9310,1.647,1111122 
TCOON,ioos:station:TCOON:524:1,2014-12-01T04:18:00Z,29.8672,-93.9310,1.658,1111122 
TCOON,ioos:station:TCOON:524:1,2014-12-01T05:12:00Z,29.8672,-93.9310,1.71,1111122 
TCOON,ioos:station:TCOON:524:1,2014-12-01T06:18:00Z,29.8672,-93.9310,1.723,1111122 
TCOON,ioos:station:TCOON:524:1,2014-12-01T07:12:00Z,29.8672,-93.9310,1.717,1111122 
TCOON,ioos:station:TCOON:524:1,2014-12-01T08:12:00Z,29.8672,-93.9310,1.69,1111122 
TCOON,ioos:station:TCOON:524:1,2014-12-01T09:12:00Z,29.8672,-93.9310,1.688,1111122 
TCOON,ioos:station:TCOON:524:1,2014-12-01T10:12:00Z,29.8672,-93.9310,1.619,1111122 
TCOON,ioos:station:TCOON:524:1,2014-12-01T11:12:00Z,29.8672,-93.9310,1.555,1111122 
TCOON,ioos:station:TCOON:524:1,2014-12-01T12:12:00Z,29.8672,-93.9310,1.517,1111122 
TCOON,ioos:station:TCOON:524:1,2014-12-01T13:12:00Z,29.8672,-93.9310,1.514,1111122 
TCOON,ioos:station:TCOON:524:1,2014-12-01T19:00:00Z,29.8672,-93.9310,1.634,1111122 
TCOON,ioos:station:TCOON:524:1,2014-12-01T19:12:00Z,29.8672,-93.9310,1.618,1111122 
TCOON,ioos:station:TCOON:524:1,2014-12-01T20:12:00Z,29.8672,-93.9310,1.64,1111122 
TCOON,ioos:station:TCOON:524:1,2014-12-01T21:18:00Z,29.8672,-93.9310,1.611,1111122 
TCOON,ioos:station:TCOON:524:1,2014-12-01T22:18:00Z,29.8672,-93.9310,1.611,1111122 
TCOON,ioos:station:TCOON:524:1,2014-12-01T23:12:00Z,29.8672,-93.9310,1.604,1111122 
TCOON,ioos:station:TCOON:524:1,2014-12-02T00:18:00Z,29.8672,-93.9310,1.544,1111122 
TCOON,ioos:station:TCOON:524:1,2014-12-02T01:18:00Z,29.8672,-93.9310,1.54,1111122 
TCOON,ioos:station:TCOON:524:1,2014-12-02T02:18:00Z,29.8672,-93.9310,1.557,1111122 
TCOON,ioos:station:TCOON:524:1,2014-12-02T03:18:00Z,29.8672,-93.9310,1.59,1111122 
TCOON,ioos:station:TCOON:524:1,2014-12-02T04:18:00Z,29.8672,-93.9310,1.566,1111122 
TCOON,ioos:station:TCOON:524:1,2014-12-02T05:18:00Z,29.8672,-93.9310,1.549,1111122 
TCOON,ioos:station:TCOON:524:1,2014-12-02T06:48:00Z,29.8672,-93.9310,1.593,1111122 
TCOON,ioos:station:TCOON:524:1,2014-12-02T07:12:00Z,29.8672,-93.9310,1.587,1111122 
TCOON,ioos:station:TCOON:524:1,2014-12-02T08:18:00Z,29.8672,-93.9310,1.562,1111122 
TCOON,ioos:station:TCOON:524:1,2014-12-02T09:18:00Z,29.8672,-93.9310,1.545,1111122 
TCOON,ioos:station:TCOON:524:1,2014-12-02T10:18:00Z,29.8672,-93.9310,1.496,1111122 
TCOON,ioos:station:TCOON:524:1,2014-12-02T11:18:00Z,29.8672,-93.9310,1.433,1111122 
TCOON,ioos:station:TCOON:524:1,2014-12-02T12:24:00Z,29.8672,-93.9310,1.381,1111122 
TCOON,ioos:station:TCOON:524:1,2014-12-02T13:18:00Z,29.8672,-93.9310,1.363,1111122 
TCOON,ioos:station:TCOON:524:1,2014-12-02T14:18:00Z,29.8672,-93.9310,1.381,1111122 
TCOON,ioos:station:TCOON:524:1,2014-12-02T15:18:00Z,29.8672,-93.9310,1.407,1111122 
TCOON,ioos:station:TCOON:524:1,2014-12-02T16:18:00Z,29.8672,-93.9310,1.427,1111122 
TCOON,ioos:station:TCOON:524:1,2014-12-02T17:18:00Z,29.8672,-93.9310,1.458,1111122 
TCOON,ioos:station:TCOON:524:1,2014-12-02T18:18:00Z,29.8672,-93.9310,1.554,1111122 
TCOON,ioos:station:TCOON:524:1,2014-12-02T19:18:00Z,29.8672,-93.9310,1.637,1111122 
TCOON,ioos:station:TCOON:524:1,2014-12-02T20:18:00Z,29.8672,-93.9310,1.631,1111122 
TCOON,ioos:station:TCOON:524:1,2014-12-02T21:18:00Z,29.8672,-93.9310,1.616,1111122 
TCOON,ioos:station:TCOON:524:1,2014-12-02T22:18:00Z,29.8672,-93.9310,1.665,1111122 
TCOON,ioos:station:TCOON:524:1,2014-12-02T23:12:00Z,29.8672,-93.9310,1.662,1111122 
TCOON,ioos:station:TCOON:524:1,2014-12-03T00:18:00Z,29.8672,-93.9310,1.663,1111122 
TCOON,ioos:station:TCOON:524:1,2014-12-03T01:18:00Z,29.8672,-93.9310,1.656,1111122 
TCOON,ioos:station:TCOON:524:1,2014-12-03T02:18:00Z,29.8672,-93.9310,1.638,1111122 
TCOON,ioos:station:TCOON:524:1,2014-12-03T03:12:00Z,29.8672,-93.9310,1.626,1111122 
TCOON,ioos:station:TCOON:524:1,2014-12-03T04:18:00Z,29.8672,-93.9310,1.629,1111122 
TCOON,ioos:station:TCOON:524:1,2014-12-03T05:18:00Z,29.8672,-93.9310,1.664,1111122 
TCOON,ioos:station:TCOON:524:1,2014-12-03T06:18:00Z,29.8672,-93.9310,1.701,1111122 
TCOON,ioos:station:TCOON:524:1,2014-12-03T07:12:00Z,29.8672,-93.9310,1.704,1111122 
TCOON,ioos:station:TCOON:524:1,2014-12-03T08:18:00Z,29.8672,-93.9310,1.713,1111122 
TCOON,ioos:station:TCOON:524:1,2014-12-03T09:18:00Z,29.8672,-93.9310,1.692,1111122 
TCOON,ioos:station:TCOON:524:1,2014-12-03T10:12:00Z,29.8672,-93.9310,1.644,1111122 
TCOON,ioos:station:TCOON:524:1,2014-12-03T11:12:00Z,29.8672,-93.9310,1.567,1111122 
TCOON,ioos:station:TCOON:524:1,2014-12-03T12:18:00Z,29.8672,-93.9310,1.461,1111122 
TCOON,ioos:station:TCOON:524:1,2014-12-03T13:12:00Z,29.8672,-93.9310,1.409,1111122 
TCOON,ioos:station:TCOON:524:1,2014-12-03T14:18:00Z,29.8672,-93.9310,1.383,1111122 
TCOON,ioos:station:TCOON:524:1,2014-12-03T15:30:00Z,29.8672,-93.9310,1.398,1111122 
TCOON,ioos:station:TCOON:524:1,2014-12-03T16:12:00Z,29.8672,-93.9310,1.427,1111122 
TCOON,ioos:station:TCOON:524:1,2014-12-03T17:18:00Z,29.8672,-93.9310,1.469,1111122 
TCOON,ioos:station:TCOON:524:1,2014-12-03T18:18:00Z,29.8672,-93.9310,1.52,1111122 
TCOON,ioos:station:TCOON:524:1,2014-12-03T19:18:00Z,29.8672,-93.9310,1.597,1111122 
TCOON,ioos:station:TCOON:524:1,2014-12-03T20:18:00Z,29.8672,-93.9310,1.658,1111122 
TCOON,ioos:station:TCOON:524:1,2014-12-03T21:18:00Z,29.8672,-93.9310,1.656,1111122 
TCOON,ioos:station:TCOON:524:1,2014-12-03T22:30:00Z,29.8672,-93.9310,1.707,1111122 
TCOON,ioos:station:TCOON:524:1,2014-12-03T23:18:00Z,29.8672,-93.9310,1.697,1111122 
TCOON,ioos:station:TCOON:524:1,2014-12-04T00:18:00Z,29.8672,-93.9310,1.696,1111122 
TCOON,ioos:station:TCOON:524:1,2014-12-04T01:18:00Z,29.8672,-93.9310,1.696,1111122 
TCOON,ioos:station:TCOON:524:1,2014-12-04T02:18:00Z,29.8672,-93.9310,1.705,1111122 
TCOON,ioos:station:TCOON:524:1,2014-12-04T03:18:00Z,29.8672,-93.9310,1.711,1111122 
TCOON,ioos:station:TCOON:524:1,2014-12-04T04:18:00Z,29.8672,-93.9310,1.706,1111122 
TCOON,ioos:station:TCOON:524:1,2014-12-04T05:18:00Z,29.8672,-93.9310,1.713,1111122 
TCOON,ioos:station:TCOON:524:1,2014-12-04T06:18:00Z,29.8672,-93.9310,1.753,1111122 
TCOON,ioos:station:TCOON:524:1,2014-12-04T07:18:00Z,29.8672,-93.9310,1.755,1111122 
TCOON,ioos:station:TCOON:524:1,2014-12-04T08:18:00Z,29.8672,-93.9310,1.761,1111122 
TCOON,ioos:station:TCOON:524:1,2014-12-04T09:18:00Z,29.8672,-93.9310,1.744,1111122 
TCOON,ioos:station:TCOON:524:1,2014-12-04T10:18:00Z,29.8672,-93.9310,1.693,1111122 
TCOON,ioos:station:TCOON:524:1,2014-12-04T11:12:00Z,29.8672,-93.9310,1.628,1111122 
TCOON,ioos:station:TCOON:524:1,2014-12-04T12:18:00Z,29.8672,-93.9310,1.514,1111122 
TCOON,ioos:station:TCOON:524:1,2014-12-04T13:18:00Z,29.8672,-93.9310,1.48,1111122 
TCOON,ioos:station:TCOON:524:1,2014-12-04T14:18:00Z,29.8672,-93.9310,1.447,1111122 
TCOON,ioos:station:TCOON:524:1,2014-12-04T15:18:00Z,29.8672,-93.9310,1.45,1111122 
TCOON,ioos:station:TCOON:524:1,2014-12-04T16:24:00Z,29.8672,-93.9310,1.404,1111122 
TCOON,ioos:station:TCOON:524:1,2014-12-04T17:18:00Z,29.8672,-93.9310,1.477,1111122 
TCOON,ioos:station:TCOON:524:1,2014-12-04T18:18:00Z,29.8672,-93.9310,1.523,1111122 
TCOON,ioos:station:TCOON:524:1,2014-12-04T19:18:00Z,29.8672,-93.9310,1.584,1111122 
TCOON,ioos:station:TCOON:524:1,2014-12-04T20:18:00Z,29.8672,-93.9310,1.664,1111122 
TCOON,ioos:station:TCOON:524:1,2014-12-04T21:18:00Z,29.8672,-93.9310,1.679,1111122 
TCOON,ioos:station:TCOON:524:1,2014-12-04T22:18:00Z,29.8672,-93.9310,1.707,1111122 
TCOON,ioos:station:TCOON:524:1,2014-12-04T23:18:00Z,29.8672,-93.9310,1.733,1111122 
TCOON,ioos:station:TCOON:524:1,2014-12-05T00:18:00Z,29.8672,-93.9310,1.742,1111122 
TCOON,ioos:station:TCOON:524:1,2014-12-05T01:24:00Z,29.8672,-93.9310,1.734,1111122 
TCOON,ioos:station:TCOON:524:1,2014-12-05T02:18:00Z,29.8672,-93.9310,1.747,1111122 
TCOON,ioos:station:TCOON:524:1,2014-12-05T03:18:00Z,29.8672,-93.9310,1.755,1111122 
TCOON,ioos:station:TCOON:524:1,2014-12-05T04:24:00Z,29.8672,-93.9310,1.771,1111122 
TCOON,ioos:station:TCOON:524:1,2014-12-05T05:18:00Z,29.8672,-93.9310,1.785,1111122 
TCOON,ioos:station:TCOON:524:1,2014-12-05T07:00:00Z,29.8672,-93.9310,1.817,1111122 
TCOON,ioos:station:TCOON:524:1,2014-12-05T07:18:00Z,29.8672,-93.9310,1.82,1111122 
TCOON,ioos:station:TCOON:524:1,2014-12-05T08:18:00Z,29.8672,-93.9310,1.824,1111122 
TCOON,ioos:station:TCOON:524:1,2014-12-05T09:18:00Z,29.8672,-93.9310,1.83,1111122 
TCOON,ioos:station:TCOON:524:1,2014-12-05T10:18:00Z,29.8672,-93.9310,1.808,1111122 
TCOON,ioos:station:TCOON:524:1,2014-12-05T11:18:00Z,29.8672,-93.9310,1.753,1111122 
TCOON,ioos:station:TCOON:524:1,2014-12-05T12:18:00Z,29.8672,-93.9310,1.676,1111122 
TCOON,ioos:station:TCOON:524:1,2014-12-05T13:18:00Z,29.8672,-93.9310,1.613,1111122 
TCOON,ioos:station:TCOON:524:1,2014-12-05T14:18:00Z,29.8672,-93.9310,1.573,1111122 
TCOON,ioos:station:TCOON:524:1,2014-12-05T15:18:00Z,29.8672,-93.9310,1.535,1111122 
TCOON,ioos:station:TCOON:524:1,2014-12-05T17:18:00Z,29.8672,-93.9310,1.544,1111122 
TCOON,ioos:station:TCOON:524:1,2014-12-05T18:18:00Z,29.8672,-93.9310,1.574,1111122 
TCOON,ioos:station:TCOON:524:1,2014-12-05T19:18:00Z,29.8672,-93.9310,1.655,1111122 
TCOON,ioos:station:TCOON:524:1,2014-12-05T20:18:00Z,29.8672,-93.9310,1.737,1111122 
TCOON,ioos:station:TCOON:524:1,2014-12-05T21:18:00Z,29.8672,-93.9310,1.773,1111122 
TCOON,ioos:station:TCOON:524:1,2014-12-05T22:18:00Z,29.8672,-93.9310,1.829,1111122 
TCOON,ioos:station:TCOON:524:1,2014-12-05T23:18:00Z,29.8672,-93.9310,1.819,1111122 
TCOON,ioos:station:TCOON:524:1,2014-12-06T00:18:00Z,29.8672,-93.9310,1.829,1111122 
TCOON,ioos:station:TCOON:524:1,2014-12-06T01:24:00Z,29.8672,-93.9310,1.845,1111122 
TCOON,ioos:station:TCOON:524:1,2014-12-06T02:24:00Z,29.8672,-93.9310,1.849,1111122 
TCOON,ioos:station:TCOON:524:1,2014-12-06T03:18:00Z,29.8672,-93.9310,1.845,1111122 
TCOON,ioos:station:TCOON:524:1,2014-12-06T04:18:00Z,29.8672,-93.9310,1.85,1111122 
TCOON,ioos:station:TCOON:524:1,2014-12-06T05:18:00Z,29.8672,-93.9310,1.846,1111122 
TCOON,ioos:station:TCOON:524:1,2014-12-06T07:06:00Z,29.8672,-93.9310,1.847,1111122 
TCOON,ioos:station:TCOON:524:1,2014-12-06T08:18:00Z,29.8672,-93.9310,1.837,1111122 
TCOON,ioos:station:TCOON:524:1,2014-12-06T09:18:00Z,29.8672,-93.9310,1.815,1111122 
TCOON,ioos:station:TCOON:524:1,2014-12-06T10:18:00Z,29.8672,-93.9310,1.781,1111122 
TCOON,ioos:station:TCOON:524:1,2014-12-06T11:18:00Z,29.8672,-93.9310,1.742,1111122 
TCOON,ioos:station:TCOON:524:1,2014-12-06T12:18:00Z,29.8672,-93.9310,1.669,1111122 
TCOON,ioos:station:TCOON:524:1,2014-12-06T13:18:00Z,29.8672,-93.9310,1.584,1111122 
TCOON,ioos:station:TCOON:524:1,2014-12-06T14:12:00Z,29.8672,-93.9310,1.528,1111122 
TCOON,ioos:station:TCOON:524:1,2014-12-06T15:18:00Z,29.8672,-93.9310,1.461,1111122 
TCOON,ioos:station:TCOON:524:1,2014-12-06T16:18:00Z,29.8672,-93.9310,1.423,1111122 
TCOON,ioos:station:TCOON:524:1,2014-12-06T17:18:00Z,29.8672,-93.9310,1.429,1111122 
TCOON,ioos:station:TCOON:524:1,2014-12-06T18:18:00Z,29.8672,-93.9310,1.453,1111122 
TCOON,ioos:station:TCOON:524:1,2014-12-06T19:18:00Z,29.8672,-93.9310,1.509,1111122 
TCOON,ioos:station:TCOON:524:1,2014-12-06T20:18:00Z,29.8672,-93.9310,1.554,1111122 
TCOON,ioos:station:TCOON:524:1,2014-12-06T21:18:00Z,29.8672,-93.9310,1.612,1111122 
TCOON,ioos:station:TCOON:524:1,2014-12-06T22:18:00Z,29.8672,-93.9310,1.678,1111122 
TCOON,ioos:station:TCOON:524:1,2014-12-06T23:18:00Z,29.8672,-93.9310,1.689,1111122 
TCOON,ioos:station:TCOON:524:1,2014-12-07T00:18:00Z,29.8672,-93.9310,1.676,1111122 
TCOON,ioos:station:TCOON:524:1,2014-12-07T01:18:00Z,29.8672,-93.9310,1.744,1111122 
TCOON,ioos:station:TCOON:524:1,2014-12-07T02:18:00Z,29.8672,-93.9310,1.69,1111122 
TCOON,ioos:station:TCOON:524:1,2014-12-07T03:18:00Z,29.8672,-93.9310,1.664,1111122 
TCOON,ioos:station:TCOON:524:1,2014-12-07T04:18:00Z,29.8672,-93.9310,1.652,1111122 
TCOON,ioos:station:TCOON:524:1,2014-12-07T05:18:00Z,29.8672,-93.9310,1.659,1111122 
TCOON,ioos:station:TCOON:524:1,2014-12-07T06:18:00Z,29.8672,-93.9310,1.653,1111122 
TCOON,ioos:station:TCOON:524:1,2014-12-07T07:18:00Z,29.8672,-93.9310,1.692,1111122 
TCOON,ioos:station:TCOON:524:1,2014-12-07T08:12:00Z,29.8672,-93.9310,1.659,1111122 
TCOON,ioos:station:TCOON:524:1,2014-12-07T09:12:00Z,29.8672,-93.9310,1.659,1111122 
TCOON,ioos:station:TCOON:524:1,2014-12-07T10:18:00Z,29.8672,-93.9310,1.657,1111122 
TCOON,ioos:station:TCOON:524:1,2014-12-07T11:18:00Z,29.8672,-93.9310,1.626,1111122 
TCOON,ioos:station:TCOON:524:1,2014-12-07T12:18:00Z,29.8672,-93.9310,1.564,1111122 
TCOON,ioos:station:TCOON:524:1,2014-12-07T13:18:00Z,29.8672,-93.9310,1.499,1111122 
TCOON,ioos:station:TCOON:524:1,2014-12-07T14:18:00Z,29.8672,-93.9310,1.52,1111122 
TCOON,ioos:station:TCOON:524:1,2014-12-07T15:18:00Z,29.8672,-93.9310,1.437,1111122 
TCOON,ioos:station:TCOON:524:1,2014-12-07T16:18:00Z,29.8672,-93.9310,1.376,1111122 
TCOON,ioos:station:TCOON:524:1,2014-12-07T17:18:00Z,29.8672,-93.9310,1.409,1111122 
TCOON,ioos:station:TCOON:524:1,2014-12-07T18:18:00Z,29.8672,-93.9310,1.399,1111122 
TCOON,ioos:station:TCOON:524:1,2014-12-07T19:18:00Z,29.8672,-93.9310,1.42,1111122 
TCOON,ioos:station:TCOON:524:1,2014-12-07T20:18:00Z,29.8672,-93.9310,1.475,1111122 
TCOON,ioos:station:TCOON:524:1,2014-12-07T21:18:00Z,29.8672,-93.9310,1.526,1111122 
TCOON,ioos:station:TCOON:524:1,2014-12-07T22:18:00Z,29.8672,-93.9310,1.605,1111122 
TCOON,ioos:station:TCOON:524:1,2014-12-07T23:18:00Z,29.8672,-93.9310,1.64,1111122 
TCOON,ioos:station:TCOON:524:1,2014-12-08T00:18:00Z,29.8672,-93.9310,1.688,1111122 
TCOON,ioos:station:TCOON:524:1,2014-12-08T01:18:00Z,29.8672,-93.9310,1.712,1111122 
TCOON,ioos:station:TCOON:524:1,2014-12-08T02:18:00Z,29.8672,-93.9310,1.768,1111122 
TCOON,ioos:station:TCOON:524:1,2014-12-08T03:18:00Z,29.8672,-93.9310,1.754,1111122 
TCOON,ioos:station:TCOON:524:1,2014-12-08T04:18:00Z,29.8672,-93.9310,1.786,1111122 
TCOON,ioos:station:TCOON:524:1,2014-12-08T05:18:00Z,29.8672,-93.9310,1.786,1111122 
TCOON,ioos:station:TCOON:524:1,2014-12-08T06:18:00Z,29.8672,-93.9310,1.798,1111122 
TCOON,ioos:station:TCOON:524:1,2014-12-08T07:12:00Z,29.8672,-93.9310,1.779,1111122 
TCOON,ioos:station:TCOON:524:1,2014-12-08T08:18:00Z,29.8672,-93.9310,1.771,1111122 
TCOON,ioos:station:TCOON:524:1,2014-12-08T09:18:00Z,29.8672,-93.9310,1.771,1111122 
TCOON,ioos:station:TCOON:524:1,2014-12-08T10:18:00Z,29.8672,-93.9310,1.765,1111122 
TCOON,ioos:station:TCOON:524:1,2014-12-08T11:18:00Z,29.8672,-93.9310,1.734,1111122 
TCOON,ioos:station:TCOON:524:1,2014-12-08T12:18:00Z,29.8672,-93.9310,1.719,1111122 
TCOON,ioos:station:TCOON:524:1,2014-12-08T13:18:00Z,29.8672,-93.9310,1.659,1111122 
TCOON,ioos:station:TCOON:524:1,2014-12-08T14:12:00Z,29.8672,-93.9310,1.596,1111122 
TCOON,ioos:station:TCOON:524:1,2014-12-08T15:18:00Z,29.8672,-93.9310,1.509,1111122 
TCOON,ioos:station:TCOON:524:1,2014-12-08T16:18:00Z,29.8672,-93.9310,1.456,1111122 
TCOON,ioos:station:TCOON:524:1,2014-12-08T17:18:00Z,29.8672,-93.9310,1.416,1111122 
TCOON,ioos:station:TCOON:524:1,2014-12-08T18:18:00Z,29.8672,-93.9310,1.396,1111122 
TCOON,ioos:station:TCOON:524:1,2014-12-08T19:18:00Z,29.8672,-93.9310,1.42,1111122 
TCOON,ioos:station:TCOON:524:1,2014-12-08T20:18:00Z,29.8672,-93.9310,1.454,1111122 
TCOON,ioos:station:TCOON:524:1,2014-12-08T21:18:00Z,29.8672,-93.9310,1.495,1111122 
TCOON,ioos:station:TCOON:524:1,2014-12-08T22:18:00Z,29.8672,-93.9310,1.54,1111122 
TCOON,ioos:station:TCOON:524:1,2014-12-08T23:18:00Z,29.8672,-93.9310,1.619,1111122 
TCOON,ioos:station:TCOON:524:1,2014-12-09T00:18:00Z,29.8672,-93.9310,1.661,1111122 
TCOON,ioos:station:TCOON:524:1,2014-12-09T01:18:00Z,29.8672,-93.9310,1.684,1111122 
TCOON,ioos:station:TCOON:524:1,2014-12-09T02:18:00Z,29.8672,-93.9310,1.681,1111122 
TCOON,ioos:station:TCOON:524:1,2014-12-09T03:12:00Z,29.8672,-93.9310,1.691,1111122 
TCOON,ioos:station:TCOON:524:1,2014-12-09T04:18:00Z,29.8672,-93.9310,1.713,1111122 
TCOON,ioos:station:TCOON:524:1,2014-12-09T05:18:00Z,29.8672,-93.9310,1.697,1111122 
TCOON,ioos:station:TCOON:524:1,2014-12-09T06:18:00Z,29.8672,-93.9310,1.693,1111122 
TCOON,ioos:station:TCOON:524:1,2014-12-09T07:18:00Z,29.8672,-93.9310,1.687,1111122 
TCOON,ioos:station:TCOON:524:1,2014-12-09T08:18:00Z,29.8672,-93.9310,1.687,1111122 
TCOON,ioos:station:TCOON:524:1,2014-12-09T09:18:00Z,29.8672,-93.9310,1.698,1111122 
TCOON,ioos:station:TCOON:524:1,2014-12-09T10:18:00Z,29.8672,-93.9310,1.672,1111122 
TCOON,ioos:station:TCOON:524:1,2014-12-09T11:18:00Z,29.8672,-93.9310,1.675,1111122 
TCOON,ioos:station:TCOON:524:1,2014-12-09T12:18:00Z,29.8672,-93.9310,1.668,1111122 
TCOON,ioos:station:TCOON:524:1,2014-12-09T13:18:00Z,29.8672,-93.9310,1.653,1111122 
TCOON,ioos:station:TCOON:524:1,2014-12-09T14:18:00Z,29.8672,-93.9310,1.581,1111122 
TCOON,ioos:station:TCOON:524:1,2014-12-09T15:18:00Z,29.8672,-93.9310,1.515,1111122 
TCOON,ioos:station:TCOON:524:1,2014-12-09T16:18:00Z,29.8672,-93.9310,1.399,1111122 
TCOON,ioos:station:TCOON:524:1,2014-12-09T17:18:00Z,29.8672,-93.9310,1.393,1111122 
TCOON,ioos:station:TCOON:524:1,2014-12-09T18:18:00Z,29.8672,-93.9310,1.369,1111122 
TCOON,ioos:station:TCOON:524:1,2014-12-09T19:18:00Z,29.8672,-93.9310,1.404,1111122 
TCOON,ioos:station:TCOON:524:1,2014-12-09T20:18:00Z,29.8672,-93.9310,1.429,1111122 
TCOON,ioos:station:TCOON:524:1,2014-12-09T21:18:00Z,29.8672,-93.9310,1.465,1111122 
TCOON,ioos:station:TCOON:524:1,2014-12-09T22:30:00Z,29.8672,-93.9310,1.529,1111122 
TCOON,ioos:station:TCOON:524:1,2014-12-09T23:48:00Z,29.8672,-93.9310,1.593,1111122 
TCOON,ioos:station:TCOON:524:1,2014-12-10T00:18:00Z,29.8672,-93.9310,1.634,1111122 
TCOON,ioos:station:TCOON:524:1,2014-12-10T01:18:00Z,29.8672,-93.9310,1.644,1111122 
TCOON,ioos:station:TCOON:524:1,2014-12-10T02:18:00Z,29.8672,-93.9310,1.648,1111122 
TCOON,ioos:station:TCOON:524:1,2014-12-10T03:18:00Z,29.8672,-93.9310,1.658,1111122 
TCOON,ioos:station:TCOON:524:1,2014-12-10T04:18:00Z,29.8672,-93.9310,1.682,1111122 
TCOON,ioos:station:TCOON:524:1,2014-12-10T05:18:00Z,29.8672,-93.9310,1.651,1111122 
TCOON,ioos:station:TCOON:524:1,2014-12-10T06:30:00Z,29.8672,-93.9310,1.62,1111122 
TCOON,ioos:station:TCOON:524:1,2014-12-10T07:18:00Z,29.8672,-93.9310,1.622,1111122 
TCOON,ioos:station:TCOON:524:1,2014-12-10T08:18:00Z,29.8672,-93.9310,1.619,1111122 
TCOON,ioos:station:TCOON:524:1,2014-12-10T09:18:00Z,29.8672,-93.9310,1.627,1111122 
TCOON,ioos:station:TCOON:524:1,2014-12-10T10:18:00Z,29.8672,-93.9310,1.612,1111122 
TCOON,ioos:station:TCOON:524:1,2014-12-10T11:18:00Z,29.8672,-93.9310,1.622,1111122 
TCOON,ioos:station:TCOON:524:1,2014-12-10T12:18:00Z,29.8672,-93.9310,1.611,1111122 
TCOON,ioos:station:TCOON:524:1,2014-12-10T13:18:00Z,29.8672,-93.9310,1.581,1111122 
TCOON,ioos:station:TCOON:524:1,2014-12-10T14:18:00Z,29.8672,-93.9310,1.514,1111122 
TCOON,ioos:station:TCOON:524:1,2014-12-10T15:18:00Z,29.8672,-93.9310,1.501,1111122 
TCOON,ioos:station:TCOON:524:1,2014-12-10T16:18:00Z,29.8672,-93.9310,1.406,1111122 
TCOON,ioos:station:TCOON:524:1,2014-12-10T17:12:00Z,29.8672,-93.9310,1.367,1111122 
TCOON,ioos:station:TCOON:524:1,2014-12-10T18:18:00Z,29.8672,-93.9310,1.342,1111122 
TCOON,ioos:station:TCOON:524:1,2014-12-10T19:12:00Z,29.8672,-93.9310,1.375,1111122 
TCOON,ioos:station:TCOON:524:1,2014-12-10T20:18:00Z,29.8672,-93.9310,1.334,1111122 
TCOON,ioos:station:TCOON:524:1,2014-12-10T21:18:00Z,29.8672,-93.9310,1.433,1111122 
TCOON,ioos:station:TCOON:524:1,2014-12-10T23:06:00Z,29.8672,-93.9310,1.536,1111122 
TCOON,ioos:station:TCOON:524:1,2014-12-11T00:18:00Z,29.8672,-93.9310,1.582,1111122 
TCOON,ioos:station:TCOON:524:1,2014-12-11T01:18:00Z,29.8672,-93.9310,1.608,1111122 
TCOON,ioos:station:TCOON:524:1,2014-12-11T02:18:00Z,29.8672,-93.9310,1.625,1111122 
TCOON,ioos:station:TCOON:524:1,2014-12-11T03:18:00Z,29.8672,-93.9310,1.644,1111122 
TCOON,ioos:station:TCOON:524:1,2014-12-11T04:18:00Z,29.8672,-93.9310,1.617,1111122 
TCOON,ioos:station:TCOON:524:1,2014-12-11T05:18:00Z,29.8672,-93.9310,1.693,1111122 
TCOON,ioos:station:TCOON:524:1,2014-12-11T06:24:00Z,29.8672,-93.9310,1.71,1111122 
TCOON,ioos:station:TCOON:524:1,2014-12-11T07:18:00Z,29.8672,-93.9310,1.697,1111122 
TCOON,ioos:station:TCOON:524:1,2014-12-11T08:18:00Z,29.8672,-93.9310,1.728,1111122 
TCOON,ioos:station:TCOON:524:1,2014-12-11T09:18:00Z,29.8672,-93.9310,1.716,1111122 
TCOON,ioos:station:TCOON:524:1,2014-12-11T10:18:00Z,29.8672,-93.9310,1.697,1111122 
TCOON,ioos:station:TCOON:524:1,2014-12-11T11:18:00Z,29.8672,-93.9310,1.684,1111122 
TCOON,ioos:station:TCOON:524:1,2014-12-11T12:18:00Z,29.8672,-93.9310,1.657,1111122 
TCOON,ioos:station:TCOON:524:1,2014-12-11T13:18:00Z,29.8672,-93.9310,1.621,1111122 
TCOON,ioos:station:TCOON:524:1,2014-12-11T14:18:00Z,29.8672,-93.9310,1.596,1111122 
TCOON,ioos:station:TCOON:524:1,2014-12-11T15:18:00Z,29.8672,-93.9310,1.559,1111122 
TCOON,ioos:station:TCOON:524:1,2014-12-11T16:18:00Z,29.8672,-93.9310,1.499,1111122 
TCOON,ioos:station:TCOON:524:1,2014-12-11T17:18:00Z,29.8672,-93.9310,1.468,1111122 
TCOON,ioos:station:TCOON:524:1,2014-12-11T18:18:00Z,29.8672,-93.9310,1.403,1111122 
TCOON,ioos:station:TCOON:524:1,2014-12-11T19:12:00Z,29.8672,-93.9310,1.375,1111122 
TCOON,ioos:station:TCOON:524:1,2014-12-11T20:18:00Z,29.8672,-93.9310,1.402,1111122 
TCOON,ioos:station:TCOON:524:1,2014-12-11T21:18:00Z,29.8672,-93.9310,1.409,1111122 
TCOON,ioos:station:TCOON:524:1,2014-12-11T22:18:00Z,29.8672,-93.9310,1.452,1111122 
TCOON,ioos:station:TCOON:524:1,2014-12-11T23:18:00Z,29.8672,-93.9310,1.461,1111122 
TCOON,ioos:station:TCOON:524:1,2014-12-12T00:18:00Z,29.8672,-93.9310,1.502,1111122 
TCOON,ioos:station:TCOON:524:1,2014-12-12T01:18:00Z,29.8672,-93.9310,1.562,1111122 
TCOON,ioos:station:TCOON:524:1,2014-12-12T02:18:00Z,29.8672,-93.9310,1.594,1111122 
TCOON,ioos:station:TCOON:524:1,2014-12-12T03:18:00Z,29.8672,-93.9310,1.642,1111122 
TCOON,ioos:station:TCOON:524:1,2014-12-12T04:18:00Z,29.8672,-93.9310,1.632,1111122 
TCOON,ioos:station:TCOON:524:1,2014-12-12T05:18:00Z,29.8672,-93.9310,1.638,1111122 
TCOON,ioos:station:TCOON:524:1,2014-12-12T06:18:00Z,29.8672,-93.9310,1.652,1111122 
TCOON,ioos:station:TCOON:524:1,2014-12-12T07:18:00Z,29.8672,-93.9310,1.677,1111122 
TCOON,ioos:station:TCOON:524:1,2014-12-12T08:18:00Z,29.8672,-93.9310,1.678,1111122 
TCOON,ioos:station:TCOON:524:1,2014-12-12T09:18:00Z,29.8672,-93.9310,1.659,1111122 
TCOON,ioos:station:TCOON:524:1,2014-12-12T10:24:00Z,29.8672,-93.9310,1.656,1111122 
TCOON,ioos:station:TCOON:524:1,2014-12-12T11:36:00Z,29.8672,-93.9310,1.63,1111122 
TCOON,ioos:station:TCOON:524:1,2014-12-12T12:18:00Z,29.8672,-93.9310,1.63,1111122 
TCOON,ioos:station:TCOON:524:1,2014-12-12T13:18:00Z,29.8672,-93.9310,1.611,1111122 
TCOON,ioos:station:TCOON:524:1,2014-12-12T14:18:00Z,29.8672,-93.9310,1.605,1111122 
TCOON,ioos:station:TCOON:524:1,2014-12-12T15:18:00Z,29.8672,-93.9310,1.518,1111122 
TCOON,ioos:station:TCOON:524:1,2014-12-12T16:18:00Z,29.8672,-93.9310,1.535,1111122 
TCOON,ioos:station:TCOON:524:1,2014-12-12T17:18:00Z,29.8672,-93.9310,1.506,1111122 
TCOON,ioos:station:TCOON:524:1,2014-12-12T18:42:00Z,29.8672,-93.9310,1.451,1111122 
TCOON,ioos:station:TCOON:524:1,2014-12-12T19:42:00Z,29.8672,-93.9310,1.435,1111122 
TCOON,ioos:station:TCOON:524:1,2014-12-12T20:42:00Z,29.8672,-93.9310,1.429,1111122 
TCOON,ioos:station:TCOON:524:1,2014-12-12T21:24:00Z,29.8672,-93.9310,1.396,1111122 
TCOON,ioos:station:TCOON:524:1,2014-12-12T22:18:00Z,29.8672,-93.9310,1.435,1111122 
TCOON,ioos:station:TCOON:524:1,2014-12-12T23:18:00Z,29.8672,-93.9310,1.457,1111122 
TCOON,ioos:station:TCOON:524:1,2014-12-13T00:18:00Z,29.8672,-93.9310,1.483,1111122 
TCOON,ioos:station:TCOON:524:1,2014-12-13T01:18:00Z,29.8672,-93.9310,1.571,1111122 
TCOON,ioos:station:TCOON:524:1,2014-12-13T02:18:00Z,29.8672,-93.9310,1.606,1111122 
TCOON,ioos:station:TCOON:524:1,2014-12-13T03:18:00Z,29.8672,-93.9310,1.607,1111122 
TCOON,ioos:station:TCOON:524:1,2014-12-13T04:12:00Z,29.8672,-93.9310,1.638,1111122 
TCOON,ioos:station:TCOON:524:1,2014-12-13T05:18:00Z,29.8672,-93.9310,1.655,1111122 